Selinsgrove, PA

4:52 PM EST on December 12, 2019 (GMT -0500)
Penn Valley

Weather History for KSEG - November, 2019

Change the Weather History Date:

Friday, November 15, 2019

  Actual Average (WUND) Record (WUND)
Temperature  
Mean Temperature 36 °F -  
Max Temperature 50 °F - - (-1)
Min Temperature 21 °F - - (-1)
Degree Days  
Heating Degree Days 30    
Moisture  
Dew Point 24 °F    
Average Humidity 66    
Maximum Humidity 92    
Minimum Humidity 33    
Precipitation  
Precipitation 0.00 in - - ()
Sea Level Pressure  
Sea Level Pressure 30.26 in    
Wind  
Wind Speed 2 mph (NW)    
Max Wind Speed 12 mph    
Max Gust Speed -    
Visibility 10 miles    
Events      
Averages and records for this station are not official NWS values.
T = Trace of Precipitation, MM = Missing Value Source: NWS Daily Summary

Daily Weather History Graph

Daily Weather History Graph

Search for Another Location

Airport or City:

Astronomy

Nov. 15, 2019 Rise Set
Actual Time 6:54 AM EST 4:49 PM EST
Civil Twilight 6:24 AM EST 5:18 PM EST
Nautical Twilight 5:51 AM EST 5:51 PM EST
Astronomical Twilight 5:19 AM EST 6:24 PM EST
Moon 7:22 PM EST (11/15) 9:49 AM EST (11/15)
Length of Visible Light 10h 53m
Length of Day
9h 55m
Waning Gibbous, 90% of the Moon is Illuminated
Nov 15
Waning Gibbous
Nov 19
Last Quarter
Nov 26
New
Dec 4
First Quarter
Dec 12
Full

Hourly Weather History & Observations

Time (EST) Temp. Windchill Dew Point Humidity Pressure Visibility Wind Dir Wind Speed Gust Speed Precip Events Conditions
12:53 AM 27.0 °F - 24.1 °F 89% 30.27 in 10.0 mi Calm Calm - N/A   Clear
1:53 AM 26.1 °F - 21.9 °F 84% 30.27 in 10.0 mi Calm Calm - N/A   Clear
2:53 AM 26.1 °F - 23.0 °F 88% 30.27 in 10.0 mi Calm Calm - N/A   Clear
3:53 AM 25.0 °F - 21.0 °F 85% 30.26 in 10.0 mi Calm Calm - N/A   Clear
5:53 AM 21.9 °F - 19.9 °F 92% 30.27 in 8.0 mi Calm Calm - N/A   Clear
6:53 AM 21.9 °F - 19.0 °F 89% 30.28 in 9.0 mi Calm Calm - N/A   Clear
7:53 AM 23.0 °F 18.4 °F 21.0 °F 92% 30.30 in 8.0 mi NW 3.5 mph - N/A   Clear
8:53 AM 30.9 °F - 26.1 °F 82% 30.30 in 9.0 mi Calm Calm - N/A   Clear
9:53 AM 37.0 °F 32.4 °F 25.0 °F 62% 30.28 in 10.0 mi Variable 5.8 mph - N/A   Clear
10:53 AM 42.1 °F 40.2 °F 25.0 °F 51% 30.26 in 10.0 mi Variable 3.5 mph - N/A   Clear
11:53 AM 44.1 °F 40.1 °F 25.0 °F 47% 30.23 in 10.0 mi South 6.9 mph - N/A   Clear
12:53 PM 46.9 °F - 25.0 °F 42% 30.20 in 10.0 mi SSW 6.9 mph - N/A   Clear
1:53 PM 48.0 °F - 23.0 °F 37% 30.19 in 10.0 mi SW 3.5 mph - N/A   Clear
2:53 PM 50.0 °F - 21.9 °F 33% 30.19 in 10.0 mi Variable 5.8 mph - N/A   Clear
3:53 PM 48.9 °F - 23.0 °F 36% 30.19 in 10.0 mi West 3.5 mph - N/A   Clear
4:53 PM 46.0 °F 43.9 °F 19.9 °F 35% 30.20 in 10.0 mi WNW 4.6 mph - N/A   Clear
5:53 PM 37.0 °F 34.5 °F 24.1 °F 59% 30.21 in 10.0 mi NNW 3.5 mph - N/A   Clear
6:53 PM 34.0 °F - 24.1 °F 67% 30.23 in 10.0 mi Calm Calm - N/A   Clear
7:53 PM 32.0 °F 26.4 °F 26.1 °F 79% 30.27 in 10.0 mi NNW 5.8 mph - N/A   Clear
8:53 PM 34.0 °F 26.0 °F 27.0 °F 75% 30.30 in 10.0 mi NNW 10.4 mph - N/A   Clear
9:53 PM 37.0 °F 32.4 °F 28.9 °F 73% 30.31 in 10.0 mi NNW 5.8 mph - N/A   Overcast
10:53 PM 39.0 °F 34.0 °F 28.9 °F 67% 30.32 in 10.0 mi North 6.9 mph - N/A   Overcast
11:53 PM 37.0 °F 29.3 °F 23.0 °F 57% 30.32 in 10.0 mi North 11.5 mph - N/A   Partly Cloudy